Flag for Lithuania Weather past 2 weeks in Kaunas, Lithuania

Now
41 °F

Mostly cloudy.


Feels Like: 32 °F
Forecast: 33 / 37 °F
Wind: 21 mph from West

Location: Kaunas

Current Time: Dec 20, 2014 at 3:35:33 AM

Latest Report: Dec 20, 2014 at 3:20 AM


Visibility: N/A

Pressure: 29.47 "Hg

Humidity: 81%

Dew point: 36 °F

Location of KaunasLocation

Historic Weather in Kaunas — Graph

°F

Kaunas temperature yesterday

Maximum temperature yesterday: 48 °F (at 8:20 AM)
Minimum temperature yesterday: 37 °F (at 12:20 AM)
Average temperature yesterday: 45 °F

Past Weeks' High & Low Weather Summary

 TemperatureHumidityPressure
High48 °F (Dec 19, 8:20 AM)100% (Dec 7, 9:20 PM)30.36 "Hg (Dec 7, 9:20 PM)
Low27 °F (Dec 5, 6:50 PM)66% (Dec 13, 11:20 AM)29.30 "Hg (Dec 13, 4:50 AM)
Average35 °F84%29.89 "Hg
* Reported Dec 5 2:20 AM — Dec 20 2:20 AM, Kaunas, Weather by CustomWeather, © 2014

Note: Actual official high and low records may vary slightly from our data, if they occured in-between our weather recording intervals... More about our weather records

Advertising

Kaunas weather history for previous 24 hours

 ConditionsComfort  
Time TempWeatherWind HumidityBarometerVisibility
2:20 AM
Dec 20
41 °FOvercast.15 mph87%29.47 "HgN/A
1:50 AM41 °FPassing clouds.15 mph87%29.47 "HgN/A
1:20 AM41 °FPassing clouds.18 mph87%29.47 "HgN/A
12:50 AM43 °FPassing clouds.17 mph81%29.47 "HgN/A
12:20 AM43 °FMostly cloudy.15 mph87%29.45 "HgN/A
11:57 PM
Dec 19
43 °FMostly cloudy.16 mph87%29.45 "HgN/A
11:20 PM43 °FPartly cloudy.15 mph87%29.45 "HgN/A
10:50 PM45 °FLight rain. Mostly cloudy.16 mph87%29.45 "HgN/A
10:20 PM45 °FLight rain. Mostly cloudy.14 mph87%29.42 "Hg6 mi
9:50 PM45 °FLight rain. Overcast.14 mph87%29.42 "HgN/A
9:20 PM45 °FLight rain. Mostly cloudy.13 mph87%29.42 "HgN/A
8:50 PM45 °FLight rain. Overcast.10 mph93%29.42 "HgN/A
8:20 PM45 °FLight rain. Mostly cloudy.8 mph93%29.42 "Hg6 mi
7:50 PM45 °FLight rain. Mostly cloudy.7 mph93%29.39 "Hg6 mi
7:20 PM45 °FLight rain. Overcast.6 mph93%29.39 "Hg4 mi
6:50 PM45 °FLight rain. Mostly cloudy.5 mph93%29.39 "Hg6 mi
6:20 PM46 °FLight rain. Mostly cloudy.2 mph87%29.42 "Hg4 mi
5:50 PM45 °FLight rain. Mostly cloudy.1 mph93%29.42 "Hg2 mi
5:20 PM46 °FLight rain. Mostly cloudy.5 mph87%29.42 "Hg5 mi
4:50 PM46 °FLight rain. Mostly cloudy.6 mph87%29.42 "HgN/A
4:20 PM46 °FLight rain. Mostly cloudy.7 mph87%29.45 "HgN/A
3:50 PM46 °FMore clouds than sun.10 mph82%29.45 "HgN/A
3:20 PM46 °FOvercast.10 mph82%29.45 "HgN/A
2:50 PM46 °FPartly sunny.16 mph82%29.45 "HgN/A
2:20 PM48 °FMostly cloudy.18 mph76%29.47 "HgN/A
1:50 PM48 °FMostly cloudy.15 mph82%29.45 "HgN/A
1:20 PM48 °FMostly cloudy.21 mph82%29.45 "HgN/A
1:02 PM48 °FMostly cloudy.17 mph82%29.45 "HgN/A
12:20 PM48 °FDrizzle. Mostly cloudy.18 mph87%29.45 "HgN/A
11:50 AM48 °FDrizzle. Mostly cloudy.15 mph87%29.45 "HgN/A
11:20 AM48 °FDrizzle. Low clouds.16 mph87%29.45 "Hg6 mi
10:50 AM48 °FLight rain. Low clouds.14 mph94%29.45 "Hg4 mi
10:20 AM48 °FLight rain. Fog.15 mph94%29.42 "Hg2 mi
9:50 AM48 °FDrizzle. Fog.13 mph87%29.42 "Hg3 mi
9:20 AM48 °FDrizzle. Low clouds.15 mph87%29.42 "Hg4 mi
8:50 AM48 °FLight rain. Low clouds.15 mph87%29.42 "Hg4 mi
8:20 AM48 °FLight rain. Fog.15 mph87%29.39 "Hg3 mi
7:50 AM46 °FLight rain. Fog.12 mph93%29.39 "Hg3 mi
7:20 AM46 °FDrizzle. Low clouds.10 mph87%29.39 "Hg5 mi
6:50 AM45 °FLight rain. Fog.12 mph93%29.39 "Hg3 mi
6:20 AM45 °FLight rain. Low clouds.12 mph93%29.39 "Hg4 mi
5:20 AM45 °FLight rain. Low clouds.13 mph87%29.42 "Hg4 mi
4:50 AM43 °FLight rain. Low clouds.10 mph93%29.42 "Hg5 mi
4:20 AM43 °FLight rain. Low clouds.8 mph87%29.42 "Hg5 mi
3:50 AM41 °FLight rain. Fog.9 mph93%29.45 "Hg3 mi
3:20 AM41 °FRain. Low clouds.10 mph87%29.47 "Hg3 mi
Weather by CustomWeather, © 2014

See weather overviewHow to use our weather pages